Flag for Norway Weather past 2 weeks in Stange, Norway

Now
37 °F

Chilly.


Feels Like: 37 °F
Forecast: 38 / 64 °F
Wind: 1 mph from East

Location: Haugedalshogda

Current Time: Sep 17, 2014 at 11:56:27 PM

Latest Report: Sep 17, 2014 at 10:00 PM


Visibility: N/A

Pressure: 30.30 "Hg

Humidity: 90%

Dew point: 35 °F

Location of StangeLocation

Historic Weather in Stange — Graph

°F

Stange temperature yesterday

Maximum temperature yesterday: 66 °F (at 3:00 PM)
Minimum temperature yesterday: 36 °F (at 3:00 AM)
Average temperature yesterday: 47 °F

Past Weeks' High & Low Weather Summary

 TemperatureHumidityPressure
High71 °F (Sep 4, 3:00 PM)95% (Sep 4, 4:00 AM)30.56 "Hg (Sep 4, 4:00 AM)
Low32 °F (Sep 13, 6:00 AM)35% (Sep 4, 3:00 PM)29.79 "Hg (Sep 9, 7:00 AM)
Average51 °F81%30.24 "Hg
* Reported Sep 2 10:00 PM — Sep 17 10:00 PM, Stange, Weather by CustomWeather, © 2014

Note: Actual official high and low records may vary slightly from our data, if they occured in-between our weather recording intervals... More about our weather records

Advertising

Stange weather history for previous 24 hours

 ConditionsComfort  
Time TempWeatherWind HumidityBarometerVisibility
10:00 PM
Sep 17
37 °FChilly.1 mph90%30.30 "HgN/A
9:00 PM41 °FQuite cool.1 mph90%30.29 "HgN/A
8:00 PM45 °FQuite cool.1 mph86%30.28 "HgN/A
7:00 PM55 °FCool.1 mph67%30.25 "HgN/A
6:00 PM62 °FRefreshingly cool.2 mph56%30.24 "HgN/A
5:00 PM64 °FMild.3 mph49%30.24 "HgN/A
4:00 PM64 °FMild.5 mph47%30.25 "HgN/A
3:00 PM65 °FMild.3 mph49%30.26 "HgN/A
2:00 PM64 °FMild.5 mph51%30.27 "HgN/A
1:00 PM60 °FCool.2 mph67%30.30 "HgN/A
12:00 PM51 °FCool.1 mph93%30.33 "HgN/A
11:00 AM43 °FQuite cool.1 mph95%30.36 "HgN/A
10:00 AM40 °FQuite cool.1 mph94%30.38 "HgN/A
9:00 AM40 °FChilly.1 mph95%30.38 "HgN/A
8:00 AM38 °FChilly.1 mph94%30.38 "HgN/A
7:00 AM36 °FChilly.1 mph95%30.39 "HgN/A
6:00 AM35 °FChilly.1 mph95%30.39 "HgN/A
5:00 AM35 °FChilly.1 mph95%30.40 "HgN/A
4:00 AM34 °FChilly.1 mph95%30.40 "HgN/A
3:00 AM35 °FChilly.No wind94%30.40 "HgN/A
2:00 AM34 °FChilly.1 mph94%30.40 "HgN/A
1:00 AM36 °FChilly.1 mph94%30.40 "HgN/A
12:00 AM36 °FChilly.No wind93%30.40 "HgN/A
11:00 PM
Sep 16
38 °FChilly.1 mph93%30.40 "HgN/A
Weather by CustomWeather, © 2014

See weather overviewHow to use our weather pages